Time,TemperatureF,DewpointF,PressureIn,WindDirection,WindDirectionDegrees,WindSpeedMPH,WindSpeedGustMPH,Humidity,HourlyPrecipIn,Conditions,Clouds,dailyrainin,SoftwareType,DateUTC
2015-04-01 00:00:00,43.2,28.1,30.03,ENE,72,0.0,0.0,55,0.00,,---,0.00,VWS V13.01,2015-04-01 07:00:00,
2015-04-01 00:10:00,43.2,27.7,30.03,ENE,72,0.0,0.0,54,0.00,,---,0.00,VWS V13.01,2015-04-01 07:10:00,
2015-04-01 00:20:00,43.2,27.7,30.03,ENE,72,0.0,0.0,54,0.00,,---,0.00,VWS V13.01,2015-04-01 07:20:00,
2015-04-01 00:30:00,43.0,27.0,30.03,ENE,72,0.0,0.0,53,0.00,,---,0.00,VWS V13.01,2015-04-01 07:30:00,
2015-04-01 00:40:00,42.8,26.9,30.03,ENE,72,0.0,0.0,53,0.00,,---,0.00,VWS V13.01,2015-04-01 07:40:00,
2015-04-01 00:50:00,42.4,26.5,30.03,ENE,72,0.0,0.0,53,0.00,,---,0.00,VWS V13.01,2015-04-01 07:50:00,
2015-04-01 01:00:00,42.3,26.4,30.03,ENE,72,0.0,0.0,53,0.00,,---,0.00,VWS V13.01,2015-04-01 08:00:00,
2015-04-01 01:10:00,42.3,26.4,30.03,ENE,72,0.0,0.0,53,0.00,,---,0.00,VWS V13.01,2015-04-01 08:10:00,
2015-04-01 01:20:00,42.3,26.4,30.03,ENE,72,0.0,0.0,53,0.00,,---,0.00,VWS V13.01,2015-04-01 08:20:00,
2015-04-01 01:30:00,41.9,26.0,30.03,ENE,72,0.0,0.0,53,0.00,,---,0.00,VWS V13.01,2015-04-01 08:30:00,
2015-04-01 01:40:00,41.9,27.8,30.03,ENE,72,0.0,0.0,57,0.00,,---,0.00,VWS V13.01,2015-04-01 08:40:00,
2015-04-01 01:50:00,41.9,27.8,30.03,ENE,72,0.0,0.0,57,0.00,,---,0.00,VWS V13.01,2015-04-01 08:50:00,
2015-04-01 02:00:00,41.7,27.6,30.03,ENE,72,0.0,0.0,57,0.00,,---,0.00,VWS V13.01,2015-04-01 09:00:00,
2015-04-01 02:10:00,41.7,28.0,30.03,ENE,72,0.0,0.0,58,0.00,,---,0.00,VWS V13.01,2015-04-01 09:10:00,
2015-04-01 02:20:00,41.5,27.5,30.03,ENE,72,0.0,0.0,57,0.00,,---,0.00,VWS V13.01,2015-04-01 09:20:00,
2015-04-01 02:30:00,41.5,27.0,30.03,ENE,72,0.0,0.0,56,0.00,,---,0.00,VWS V13.01,2015-04-01 09:30:00,
2015-04-01 02:40:00,41.7,26.8,30.03,ENE,72,0.0,0.0,55,0.00,,---,0.00,VWS V13.01,2015-04-01 09:40:00,
2015-04-01 02:50:00,41.7,26.8,30.03,ENE,72,0.0,0.0,55,0.00,,---,0.00,VWS V13.01,2015-04-01 09:50:00,
2015-04-01 03:00:00,41.9,26.0,30.01,NE,47,0.0,0.0,53,0.00,,---,0.00,VWS V13.01,2015-04-01 10:00:00,
2015-04-01 03:10:00,42.1,25.7,30.01,NE,47,0.0,0.0,52,0.00,,---,0.00,VWS V13.01,2015-04-01 10:10:00,